Location: B?lite?ti
(46.2833°N, 22.7333°E)
Time: 17:07:28
(UTC+00:00)

USA 267 - Pass Details

Date: 24 January 2021
Orbit: 1102 x 1106 km, 123.0° (Epoch: 22 February)

Event Time Altitude Azimuth Distance (km) Brightness Sun altitude
Exits shadow 18:41:53 36° 201° (SSW) 1,663 4.2 -34.3°
Drops below altitude 10° 18:45:40 10° 217° (SW) 2,954 5.8 -35.0°
Sets 18:48:11 0° 221° (SW) 3,910 6.5 -35.4°
